RH
31 22 18 18 28 52 67 74 74 70 66 65 59 52 56 58 56 53 49 46 47 50 51 48 42 38 38 40 42 53 55 53 52 53 47 34 42 49 54 57 61 63 52
24 19 17 14 10 10 13 36 67 69 71 70 68 65 59 63 66 64 62 60 58 59 61 62 61 59 59 59 61 64 62 61 61 58 55 56 50 56 58 66 61 52 53
20 15 8 7 7 7 7 7 11 12 25 51 60 56 58 53 49 56 58 63 68 65 65 64 64 68 71 73 71 72 73 68 65 64 58 57 54 56 58 65 71 60 52
9 6 7 7 8 8 8 8 8 8 8 9 10 10 12 12 18 34 41 47 60 61 62 59 60 63 69 70 74 75 75 77 72 68 64 59 58 51 46 52 56 56 49
8 8 9 9 10 10 11 11 12 12 12 11 11 10 10 9 9 9 10 12 17 24 32 39 46 56 59 62 68 73 76 74 74 74 71 62 59 59 42 37 39 47 46
9 11 12 13 15 16 17 18 18 19 19 19 19 18 18 17 15 14 12 11 10 10 9 10 19 32 50 54 61 64 70 74 76 68 74 74 66 63 62 44 29 24 29
12 14 16 18 20 20 21 22 21 21 20 21 20 19 19 18 18 19 18 19 18 18 16 15 13 11 10 18 36 61 64 68 76 78 68 76 75 70 64 62 59 29 26
15 18 20 22 22 22 20 18 16 15 15 14 13 12 12 13 11 11 11 11 12 12 13 13 15 16 17 15 13 21 47 68 74 75 78 72 76 76 70 66 66 48 41
19 22 23 22 20 18 14 12 11 10 10 10 10 10 9 9 9 9 9 9 9 9 9 8 9 10 12 15 17 15 13 32 66 76 76 76 73 76 78 71 71 61 52
22 24 22 18 14 10 10 10 10 10 10 10 9 9 10 10 10 10 11 11 11 10 10 10 10 9 9 10 12 17 17 14 35 65 73 74 77 76 73 76 72 75 56
24 22 17 11 11 11 12 13 13 13 14 14 14 14 14 13 12 12 12 13 13 12 12 11 10 10 9 9 9 11 17 19 15 23 74 82 77 76 79 77 76 75 70
22 16 11 12 13 15 16 17 18 19 19 20 20 20 19 17 15 14 14 14 14 14 13 13 12 11 10 10 9 9 9 13 20 18 13 53 84 76 75 80 81 78 80
19 11 12 14 17 18 19 20 21 22 23 23 23 22 21 20 18 17 16 16 16 16 15 15 14 12 12 11 11 10 9 9 12 20 21 13 49 88 79 81 82 83 79
13 12 14 17 19 21 23 23 23 24 25 25 24 23 22 21 20 19 19 18 17 17 16 16 15 14 13 12 11 10 9 8 9 17 24 23 15 52 61 86 84 83 84
13 14 16 18 20 24 27 28 27 26 26 26 27 27 26 24 23 21 20 20 19 18 16 16 15 14 13 12 11 11 10 9 13 23 31 34 27 18 49 87 85 88 89
14 15 17 19 21 25 29 32 32 30 29 29 30 30 29 26 24 22 21 19 18 17 16 16 15 15 14 14 13 12 12 13 20 35 55 50 42 32 20 65 97 91 94
14 16 18 20 23 26 29 34 35 34 33 33 34 34 31 27 23 21 19 18 18 17 16 15 15 15 14 15 16 14 15 19 35 56 62 67 58 43 35 24 91 100 96
15 17 19 22 24 27 30 36 38 39 37 36 38 37 32 25 21 20 19 18 16 15 15 14 15 15 17 19 20 22 24 26 30 55 73 81 72 60 44 37 24 53 99
16 18 20 24 26 29 32 38 43 43 39 39 40 37 29 22 21 19 18 16 15 15 16 18 19 21 21 23 24 26 29 30 31 41 62 82 81 65 53 46 40 28 28
20 21 24 28 29 30 34 43 48 45 42 42 40 35 24 22 20 18 16 16 17 19 20 23 24 25 25 25 26 29 32 34 35 42 52 72 85 74 54 50 46 42 29
24 26 30 33 33 33 39 50 50 45 43 42 40 30 22 21 19 17 16 17 19 20 21 23 21 19 14 10 13 20 28 37 39 41 50 59 72 86 64 49 44 44 43
29 34 38 38 36 36 47 52 47 44 42 43 38 24 22 21 19 18 18 20 21 21 20 18 13 9 8 7 8 8 17 27 37 40 52 61 59 70 86 63 54 42 45
35 42 44 42 38 42 54 50 47 45 46 43 30 24 22 21 20 20 21 21 19 17 16 14 10 8 7 7 10 15 11 14 27 35 43 62 64 81 95 76 68 48 45
44 44 46 41 41 55 54 50 48 47 45 38 25 24 23 21 21 20 16 10 7 6 6 7 8 7 7 6 10 21 22 17 15 27 35 50 59 73 98 83 82 60 44
46 46 44 42 54 58 53 51 49 50 48 33 25 25 23 21 20 13 7 4 4 3 3 4 5 6 7 7 10 18 26 26 24 19 30 36 61 89 91 99 82 74 50
46 45 42 54 61 58 55 53 53 55 48 28 27 24 21 19 14 6 4 4 4 4 4 4 4 4 6 7 11 20 26 28 29 25 23 36 43 73 83 96 97 100 100
Wind_Speed
5 5 6 7 7 4 4 5 5 6 8 8 9 10 11 11 12 13 14 15 16 17 17 18 19 19 19 19 18 17 17 17 18 18 18 16 14 16 15 17 18 17 16
7 7 8 10 11 11 10 9 6 6 8 9 10 11 12 11 12 13 15 15 16 18 18 19 19 19 20 21 21 20 19 19 18 18 16 14 15 15 16 16 17 19 19
7 8 9 8 9 10 10 10 12 14 13 13 14 14 14 15 17 17 16 17 18 18 18 20 21 21 21 21 22 23 22 21 20 19 19 16 14 15 16 17 18 19 20
7 7 7 7 8 9 10 10 12 13 14 15 17 18 18 19 19 20 19 21 21 21 22 23 23 23 23 23 23 23 24 23 22 21 20 20 19 17 18 20 21 21 21
5 5 6 6 7 8 8 10 11 12 13 15 16 17 18 18 19 20 22 23 25 26 28 28 28 27 27 27 25 25 25 24 25 25 23 22 22 21 20 21 23 24 24
5 6 6 6 8 9 10 11 12 13 15 16 17 18 19 21 21 22 22 23 24 26 27 27 29 30 30 31 30 30 28 28 28 27 27 25 25 24 24 24 21 25 27
6 6 7 9 11 12 15 17 19 20 20 20 21 22 22 22 23 23 24 24 25 27 28 28 29 31 31 33 35 33 33 32 32 30 28 28 26 25 26 26 25 23 26
7 7 9 12 14 15 17 18 19 20 21 22 23 23 24 24 24 25 26 27 28 28 29 29 30 31 32 34 35 36 37 36 35 34 32 31 29 28 28 29 27 27 25
7 8 10 12 13 15 16 17 18 20 20 21 22 23 23 24 25 25 26 27 28 29 30 31 32 33 34 35 36 37 38 39 40 39 37 37 33 33 31 31 30 28 27
9 10 11 13 14 14 15 16 18 19 20 21 21 22 23 23 24 24 25 25 26 28 30 31 33 35 37 38 39 39 40 41 43 43 43 42 38 37 36 34 33 32 30
10 10 11 12 13 14 16 18 18 18 19 20 21 22 24 25 25 26 26 28 29 31 33 34 36 37 39 40 41 42 42 43 45 46 46 46 44 42 39 38 37 36 33
10 10 10 11 13 15 15 16 17 19 21 23 24 25 26 26 27 28 29 30 32 33 35 37 39 40 42 43 43 44 45 46 47 48 49 49 48 49 47 45 42 40 39
9 9 9 10 12 14 15 17 19 22 24 26 28 28 28 28 29 30 31 33 35 36 38 40 41 43 44 46 46 48 49 48 48 50 51 51 52 50 51 50 47 45 42
10 10 10 10 11 14 17 19 21 23 25 28 30 31 31 31 31 32 34 35 37 38 40 42 43 44 45 47 48 49 50 51 52 51 51 52 52 54 54 54 53 49 46
12 12 10 11 13 16 19 23 25 28 30 33 35 36 36 35 35 35 36 38 40 42 44 45 46 47 48 48 48 49 50 51 52 53 52 51 52 53 56 57 56 54 50
14 13 13 14 15 18 22 26 29 32 35 37 40 41 41 40 40 40 41 43 45 48 49 51 51 52 52 51 51 49 50 51 52 53 52 51 50 50 53 58 59 57 54
17 16 16 16 18 21 24 28 32 36 38 40 42 43 44 44 44 46 47 49 51 52 53 53 53 52 51 50 50 51 51 51 50 47 49 50 50 49 47 54 62 60 59
20 19 19 19 20 23 26 31 35 38 39 41 43 44 44 44 47 49 51 52 54 54 53 53 52 51 51 52 52 51 50 49 49 47 44 46 47 47 47 46 53 58 63
23 22 22 22 23 25 28 32 36 39 40 42 44 46 46 46 49 51 52 52 53 52 50 49 48 48 48 48 48 47 45 43 42 44 43 41 44 44 44 45 44 47 57
26 25 25 25 26 27 30 34 37 40 40 44 46 48 47 48 50 51 51 51 50 48 47 47 46 44 44 44 43 43 40 36 38 39 38 40 41 44 41 42 43 42 43
27 28 27 27 28 30 32 36 38 39 41 44 46 47 48 50 51 51 50 49 48 48 48 47 47 46 45 44 43 38 35 34 34 35 34 38 43 41 39 36 38 39 39
29 28 28 29 30 32 35 39 42 43 45 47 48 47 49 49 49 49 48 47 47 47 46 47 46 46 46 44 42 40 37 29 28 29 31 34 35 34 43 36 34 37 36
28 28 29 29 30 34 37 41 43 45 47 49 49 48 48 48 47 47 45 45 44 44 45 46 45 45 44 41 37 38 39 36 30 24 26 27 31 29 40 41 34 34 37
26 28 28 28 31 35 39 41 44 47 50 50 51 51 49 49 47 45 45 44 44 44 43 43 43 44 43 40 37 32 33 36 36 29 22 24 31 30 25 44 35 34 36
27 26 26 29 33 37 40 42 45 47 50 51 51 51 49 47 45 45 45 43 42 42 42 42 42 42 41 39 37 35 30 29 31 34 29 22 25 28 42 21 42 35 34
24 24 26 31 35 37 39 43 45 49 51 52 51 51 50 48 47 45 43 42 43 44 43 42 41 41 39 37 36 34 33 30 27 29 33 28 23 25 33 32 35 24 28
Wind_Direction
283 299 297 287 285 297 306 306 319 308 299 299 294 293 288 284 280 280 279 280 283 283 284 286 288 288 289 290 291 288 287 287 289 293 297 293 275 267 249 246 247 247 246
272 286 294 295 295 294 290 279 284 275 284 291 280 274 278 286 291 287 285 283 281 281 283 284 285 287 290 291 290 288 289 287 286 288 291 289 281 270 256 247 246 245 245
274 287 288 297 300 298 298 296 287 281 277 278 287 284 280 280 279 280 287 292 287 284 283 282 283 284 284 284 285 289 288 286 284 283 287 282 272 271 267 252 248 243 245
282 284 290 287 289 294 292 290 290 292 293 291 290 290 291 290 284 282 279 273 279 283 284 284 284 283 283 282 283 284 286 287 282 280 279 281 275 263 261 259 256 247 245
271 281 285 291 288 286 291 292 295 298 301 301 300 298 298 296 293 289 286 283 282 280 280 279 279 279 281 282 282 280 278 279 282 281 280 276 273 271 260 257 257 256 251
288 281 282 299 306 313 312 313 315 317 313 309 305 303 302 301 300 298 294 293 291 288 288 286 282 279 278 278 278 279 280 277 273 272 277 276 273 268 268 262 258 257 253
277 293 306 313 319 325 327 327 325 320 315 312 310 306 303 303 301 300 298 296 294 293 292 290 288 287 285 280 275 273 273 275 274 273 269 270 267 267 268 265 269 259 248
278 293 312 322 325 325 322 319 316 311 309 308 306 305 304 302 302 299 297 296 294 293 292 290 289 287 284 282 279 274 270 267 266 268 268 265 266 265 264 265 262 267 249
280 301 315 319 319 317 316 313 313 312 312 310 308 306 303 300 297 296 295 293 292 292 291 291 289 287 285 282 279 275 270 267 265 262 261 264 261 263 263 260 259 259 256
296 306 314 319 320 316 318 318 319 319 317 315 313 310 306 303 300 298 297 296 296 293 292 291 290 288 286 284 279 275 272 268 263 261 259 259 259 259 259 258 256 252 252
292 305 315 316 317 325 327 328 326 323 324 323 320 315 309 305 301 299 299 299 298 296 295 292 289 286 284 282 281 278 274 270 266 260 257 254 254 256 257 255 254 251 246
292 303 311 321 327 327 327 326 326 330 332 330 326 322 318 314 310 306 302 298 296 293 291 290 288 286 283 281 279 278 275 272 268 265 260 254 252 252 254 254 253 250 245
283 294 309 314 322 326 326 329 331 333 333 333 333 329 323 317 311 305 301 298 296 294 293 292 289 287 284 282 279 277 276 272 266 263 261 256 250 248 250 251 251 249 245
272 285 289 302 319 327 330 331 329 329 332 333 330 327 323 318 312 306 302 299 297 295 294 293 290 287 285 283 281 277 274 272 270 264 259 258 253 245 245 247 248 246 244
259 267 277 296 311 325 334 335 332 333 332 332 331 329 326 321 316 312 309 307 304 303 303 300 298 296 293 289 285 281 277 271 268 266 261 256 254 250 241 241 244 244 243
254 262 274 289 306 323 331 334 334 333 332 330 330 330 327 323 320 317 315 313 312 312 310 307 305 301 298 294 288 282 276 271 267 265 262 258 255 251 245 239 240 241 241
251 259 270 288 306 315 323 329 332 332 330 330 329 327 326 325 323 321 320 319 316 314 312 309 305 301 297 291 286 279 274 271 269 266 261 258 254 251 249 242 239 239 239
250 258 272 286 299 308 317 325 329 330 328 326 326 327 326 325 323 323 322 321 319 316 312 309 306 302 297 293 287 282 279 275 270 269 267 260 255 252 248 246 243 241 240
251 260 272 283 293 305 313 322 325 326 325 325 326 326 327 327 325 324 321 319 317 316 314 310 307 305 301 296 291 286 281 276 269 267 265 263 256 253 250 247 245 246 242
252 261 272 280 290 300 310 319 322 324 323 324 325 327 328 326 325 324 322 321 319 318 316 314 311 308 304 300 295 292 287 278 269 267 263 261 263 246 250 249 246 245 244
256 262 271 279 287 298 310 316 321 318 318 321 325 328 328 328 326 324 322 321 321 320 318 315 314 311 308 304 301 296 289 278 274 267 265 260 260 256 243 243 245 244 241
257 264 271 279 287 299 310 317 318 318 321 325 329 330 328 327 325 323 323 322 321 319 317 314 313 310 307 307 306 302 297 285 269 267 263 262 266 268 236 236 243 242 240
259 265 272 279 289 301 312 315 316 319 323 326 327 327 327 325 324 324 322 321 318 315 314 312 311 309 307 307 306 302 300 293 287 261 259 257 260 254 242 232 236 245 243
259 266 273 281 293 305 311 313 316 320 324 326 326 328 326 325 325 323 320 319 316 315 313 312 310 307 308 307 304 299 295 293 291 282 255 248 254 255 216 229 231 242 244
260 268 274 287 300 306 309 313 317 321 323 324 324 324 324 323 323 320 318 318 317 316 316 314 310 307 306 306 303 299 293 285 283 283 277 250 250 254 258 213 225 237 241
264 269 281 295 300 304 309 313 318 320 322 322 322 322 323 323 321 318 318 317 317 317 316 313 309 305 303 302 301 297 294 289 281 274 275 271 252 243 252 251 202 228 238